Regional Weather Roundup
Issued by NWS

Home | Current Version | Previous Version | Graphics & Text | Print | Product List | Glossary On
Versions: 1 2 3 4 5 6 7 8 9 10 11 12 13 14 15 16 17 18 19 20 21 22 23 24 25 26 27 28 29 30 31 32 33 34 35 36 37 38 39 40 41 42 43 44 45 46 47 48 49 50
000
ASUS43 KBIS 260402
RWRND

NORTH DAKOTA REGIONAL WEATHER ROUNDUP
NATIONAL WEATHER SERVICE BISMARCK ND
1100 PM CDT TUE JUL 25 2017

NOTE: "FAIR" INDICATES FEW OR NO CLOUDS BELOW 12,000 FEET WITH NO
SIGNIFICANT WEATHER AND/OR OBSTRUCTIONS TO VISIBILITY.


NDZ001>003-009>011-017-260500-
NORTHWEST NORTH DAKOTA

CITY           SKY/WX    TMP DP  RH WIND       PRES   REMARKS
WILLISTON      CLOUDY    73  47  39 N8        30.04R
MINOT          PTCLDY    69  54  58 NW9       30.01R
MINOT AFB      PTCLDY    62  55  77 NW6       30.00R
$$

NDZ018>021-031>035-040>046-260500-
SOUTHWEST NORTH DAKOTA

CITY           SKY/WX    TMP DP  RH WIND       PRES   REMARKS
BISMARCK       CLOUDY    75  54  47 N7        30.01R
DICKINSON      CLOUDY    74  46  36 N7        30.04R
GARRISON         N/A     67  54  63 N3        30.02R
HETTINGER ARPT CLOUDY    70  57  63 CALM      30.07R
$$

NDZ004>008-012>016-024-026-027-054-260500-
NORTHEAST NORTH DAKOTA

CITY           SKY/WX    TMP DP  RH WIND       PRES   REMARKS
GRAND FORKS    PTCLDY    65  60  84 W5        29.94S
GRND FRKS AFB  CLOUDY    62  57  86 W3        29.96R
DEVILS LAKE    CLOUDY    67  61  81 SW3       29.99S
$$

NDZ022-023-025-028>030-036>039-047>053-260500-
SOUTHEAST NORTH DAKOTA

CITY           SKY/WX    TMP DP  RH WIND       PRES   REMARKS
FARGO          MOCLDY    70  62  76 CALM      29.97R
JAMESTOWN      MOCLDY    67  57  70 NE3       30.00R
$$





USA.gov is the U.S. government's official web portal to all federal, state and local government web resources and services.